When you browse on this site, cookies collect data to enhance your experience and personalize the content and advertising you see.
Visit our Privacy Policy to learn more. By continuing to use the site, you agree to this use of cookies and data.
  • Em Portugal
  • Lista de países
  • Para 7 dias
  • Temperatura da água
  • Mapas de satélite
  • Mapa do tempo
  • Widgets de tempo
  • user-avatar
    Iniciar Sessão

    Previsão horária em Macapa

    Hoje, 17 Dezembro, Segunda-feira

    Tempo Temperatura Precipitação Vento Pressão Humidade
    00:00 +24°C° 0.3 mm 1 m/s 760 mmHg 97%
    01:00 +24°C° 0.3 mm 1 m/s 760 mmHg 98%
    02:00 +24°C° 0.3 mm 1 m/s 759 mmHg 98%
    03:00 +24°C° 0.3 mm 1 m/s 759 mmHg 98%
    04:00 +24°C° 0.8 mm 1 m/s 759 mmHg 98%
    05:00 +24°C° 0.8 mm 1 m/s 759 mmHg 98%
    06:00 +24°C° 0.8 mm 1 m/s 759 mmHg 98%
    07:00 +24°C° 2.5 mm 1 m/s 760 mmHg 97%
    08:00 +25°C° 2.5 mm 1 m/s 760 mmHg 97%
    09:00 +25°C° 2.5 mm 1 m/s 761 mmHg 97%
    10:00 +26°C° 0.9 mm 1 m/s 761 mmHg 94%
    11:00 +26°C° 0.9 mm 1 m/s 760 mmHg 91%
    12:00 +27°C° 0.9 mm 1 m/s 760 mmHg 88%
    13:00 +28°C° 0.1 mm 1 m/s 760 mmHg 83%
    14:00 +29°C° 0.1 mm 2 m/s 759 mmHg 77%
    15:00 +30°C° 0.1 mm 2 m/s 758 mmHg 71%
    16:00 +29°C° 0.1 mm 2 m/s 758 mmHg 77%
    17:00 +28°C° 0.1 mm 2 m/s 758 mmHg 83%
    18:00 +27°C° 0.1 mm 2 m/s 758 mmHg 88%
    19:00 +27°C° 0 mm 2 m/s 758 mmHg 91%
    20:00 +26°C° 0 mm 2 m/s 759 mmHg 93%
    21:00 +25°C° 0 mm 2 m/s 760 mmHg 96%
    22:00 +25°C° 0 mm 2 m/s 760 mmHg 96%
    23:00 +25°C° 0 mm 2 m/s 760 mmHg 97%

    Amanhã, 18 Dezembro, Terça-feira

    Tempo Temperatura Precipitação Vento Pressão Humidade
    00:00 +25°C° 0 mm 2 m/s 760 mmHg 97%
    01:00 +25°C° 1.6 mm 2 m/s 759 mmHg 98%
    02:00 +25°C° 1.6 mm 2 m/s 759 mmHg 98%
    03:00 +25°C° 1.6 mm 2 m/s 758 mmHg 98%
    04:00 +24°C° 1.3 mm 2 m/s 759 mmHg 98%
    05:00 +24°C° 1.3 mm 1 m/s 759 mmHg 98%
    06:00 +24°C° 1.3 mm 1 m/s 759 mmHg 98%
    07:00 +26°C° 0.6 mm 1 m/s 759 mmHg 95%
    08:00 +27°C° 0.6 mm 1 m/s 760 mmHg 91%
    09:00 +28°C° 0.6 mm 2 m/s 760 mmHg 87%
    10:00 +29°C° 0.7 mm 2 m/s 760 mmHg 85%
    11:00 +29°C° 0.7 mm 2 m/s 760 mmHg 83%
    12:00 +30°C° 0.7 mm 3 m/s 760 mmHg 81%
    13:00 +30°C° 0.8 mm 3 m/s 759 mmHg 81%
    14:00 +30°C° 0.8 mm 3 m/s 758 mmHg 81%
    15:00 +30°C° 0.8 mm 3 m/s 757 mmHg 82%
    16:00 +29°C° 0.7 mm 3 m/s 757 mmHg 85%
    17:00 +28°C° 0.7 mm 3 m/s 757 mmHg 89%
    18:00 +27°C° 0.7 mm 3 m/s 757 mmHg 93%
    19:00 +27°C° 0.3 mm 3 m/s 758 mmHg 94%
    20:00 +26°C° 0.3 mm 3 m/s 759 mmHg 95%
    21:00 +26°C° 0.3 mm 3 m/s 759 mmHg 97%
    22:00 +25°C° 0.6 mm 2 m/s 760 mmHg 97%
    23:00 +25°C° 0.6 mm 2 m/s 760 mmHg 97%

    Depois de amanhã, 19 Dezembro, Quarta-feira

    Tempo Temperatura Precipitação Vento Pressão Humidade
    00:00 +25°C° 0.6 mm 2 m/s 760 mmHg 98%
    01:00 +25°C° 1.2 mm 2 m/s 760 mmHg 98%
    02:00 +25°C° 1.2 mm 2 m/s 759 mmHg 98%
    03:00 +25°C° 1.2 mm 2 m/s 758 mmHg 98%
    04:00 +25°C° 0.8 mm 2 m/s 758 mmHg 98%
    05:00 +25°C° 0.8 mm 2 m/s 759 mmHg 98%
    06:00 +25°C° 0.8 mm 2 m/s 759 mmHg 98%
    07:00 +26°C° 0.4 mm 2 m/s 759 mmHg 95%
    08:00 +27°C° 0.4 mm 2 m/s 760 mmHg 93%
    09:00 +28°C° 0.4 mm 2 m/s 760 mmHg 90%
    10:00 +28°C° 0.3 mm 2 m/s 760 mmHg 87%
    11:00 +29°C° 0.3 mm 2 m/s 760 mmHg 84%
    12:00 +30°C° 0.3 mm 2 m/s 760 mmHg 81%
    13:00 +30°C° 0.5 mm 2 m/s 759 mmHg 81%
    14:00 +30°C° 0.5 mm 2 m/s 758 mmHg 82%
    15:00 +30°C° 0.5 mm 2 m/s 757 mmHg 82%
    16:00 +29°C° 0.3 mm 2 m/s 757 mmHg 85%
    17:00 +28°C° 0.3 mm 2 m/s 757 mmHg 88%
    18:00 +28°C° 0.3 mm 2 m/s 757 mmHg 90%
    19:00 +27°C° 0 mm 2 m/s 757 mmHg 92%
    20:00 +26°C° 0 mm 2 m/s 758 mmHg 94%
    21:00 +26°C° 0 mm 2 m/s 758 mmHg 96%
    22:00 +26°C° 0.1 mm 2 m/s 758 mmHg 96%
    23:00 +25°C° 0.1 mm 2 m/s 758 mmHg 97%

    20 Dezembro, Quinta-feira

    Tempo Temperatura Precipitação Vento Pressão Humidade
    00:00 +25°C° 0.1 mm 2 m/s 758 mmHg 97%
    01:00 +25°C° 0.4 mm 2 m/s 758 mmHg 98%
    02:00 +25°C° 0.4 mm 2 m/s 757 mmHg 98%
    03:00 +25°C° 0.4 mm 2 m/s 757 mmHg 98%
    04:00 +25°C° 0.3 mm 2 m/s 757 mmHg 98%
    05:00 +25°C° 0.3 mm 2 m/s 757 mmHg 98%
    06:00 +25°C° 0.3 mm 2 m/s 758 mmHg 98%
    07:00 +26°C° 0.3 mm 2 m/s 758 mmHg 95%
    08:00 +27°C° 0.3 mm 2 m/s 759 mmHg 92%
    09:00 +28°C° 0.3 mm 3 m/s 759 mmHg 89%
    10:00 +28°C° 0.4 mm 3 m/s 759 mmHg 87%
    11:00 +29°C° 0.4 mm 3 m/s 759 mmHg 85%
    12:00 +29°C° 0.4 mm 3 m/s 759 mmHg 83%
    13:00 +29°C° 0.6 mm 3 m/s 758 mmHg 83%
    14:00 +29°C° 0.6 mm 3 m/s 757 mmHg 83%
    15:00 +29°C° 0.6 mm 3 m/s 756 mmHg 84%
    16:00 +29°C° 0.5 mm 3 m/s 756 mmHg 86%
    17:00 +28°C° 0.5 mm 3 m/s 756 mmHg 88%
    18:00 +28°C° 0.5 mm 3 m/s 757 mmHg 90%
    19:00 +27°C° 0.2 mm 3 m/s 757 mmHg 92%
    20:00 +26°C° 0.2 mm 3 m/s 758 mmHg 94%
    21:00 +26°C° 0.2 mm 3 m/s 758 mmHg 96%
    22:00 +26°C° 0.1 mm 3 m/s 758 mmHg 96%
    23:00 +25°C° 0.1 mm 2 m/s 758 mmHg 97%

    21 Dezembro, Sexta-feira

    Tempo Temperatura Precipitação Vento Pressão Humidade
    00:00 +25°C° 0.1 mm 2 m/s 758 mmHg 97%
    01:00 +25°C° 0.2 mm 2 m/s 758 mmHg 97%
    02:00 +25°C° 0.2 mm 2 m/s 757 mmHg 98%
    03:00 +25°C° 0.2 mm 2 m/s 757 mmHg 98%
    04:00 +25°C° 0.1 mm 2 m/s 757 mmHg 98%
    05:00 +25°C° 0.1 mm 2 m/s 757 mmHg 98%
    06:00 +25°C° 0.1 mm 2 m/s 757 mmHg 98%
    07:00 +26°C° 0.2 mm 2 m/s 758 mmHg 94%
    08:00 +27°C° 0.2 mm 2 m/s 758 mmHg 91%
    09:00 +28°C° 0.2 mm 3 m/s 759 mmHg 87%
    10:00 +28°C° 0.7 mm 3 m/s 758 mmHg 86%
    11:00 +29°C° 0.7 mm 3 m/s 758 mmHg 84%
    12:00 +30°C° 0.7 mm 3 m/s 758 mmHg 82%
    13:00 +29°C° 0.7 mm 3 m/s 757 mmHg 83%
    14:00 +29°C° 0.7 mm 3 m/s 757 mmHg 83%
    15:00 +29°C° 0.7 mm 3 m/s 756 mmHg 84%
    16:00 +29°C° 0.4 mm 3 m/s 756 mmHg 87%
    17:00 +28°C° 0.4 mm 3 m/s 756 mmHg 89%
    18:00 +27°C° 0.4 mm 3 m/s 756 mmHg 92%
    19:00 +27°C° 0.1 mm 3 m/s 757 mmHg 93%
    20:00 +26°C° 0.1 mm 3 m/s 758 mmHg 95%
    21:00 +26°C° 0.1 mm 3 m/s 758 mmHg 97%
    22:00 +25°C° 0 mm 2 m/s 758 mmHg 97%
    23:00 +25°C° 0 mm 2 m/s 758 mmHg 97%

    22 Dezembro, Sábado

    Tempo Temperatura Precipitação Vento Pressão Humidade
    00:00 +25°C° 0 mm 2 m/s 758 mmHg 97%
    01:00 +25°C° 0.1 mm 2 m/s 757 mmHg 98%
    02:00 +25°C° 0.1 mm 2 m/s 757 mmHg 98%
    03:00 +25°C° 0.1 mm 2 m/s 757 mmHg 98%
    04:00 +25°C° 0.1 mm 2 m/s 757 mmHg 98%
    05:00 +24°C° 0.1 mm 2 m/s 757 mmHg 98%
    06:00 +24°C° 0.1 mm 2 m/s 757 mmHg 99%
    07:00 +25°C° 0.2 mm 2 m/s 758 mmHg 95%
    08:00 +26°C° 0.2 mm 2 m/s 758 mmHg 92%
    09:00 +28°C° 0.2 mm 2 m/s 759 mmHg 89%
    10:00 +28°C° 0.6 mm 2 m/s 759 mmHg 86%
    11:00 +29°C° 0.6 mm 2 m/s 758 mmHg 84%
    12:00 +29°C° 0.6 mm 2 m/s 758 mmHg 82%
    13:00 +30°C° 0.8 mm 2 m/s 757 mmHg 82%
    14:00 +30°C° 0.8 mm 3 m/s 757 mmHg 82%
    15:00 +30°C° 0.8 mm 3 m/s 756 mmHg 82%
    16:00 +29°C° 0.4 mm 3 m/s 756 mmHg 85%
    17:00 +28°C° 0.4 mm 3 m/s 756 mmHg 89%
    18:00 +28°C° 0.4 mm 3 m/s 756 mmHg 92%
    19:00 +27°C° 0.1 mm 3 m/s 757 mmHg 94%
    20:00 +26°C° 0.1 mm 3 m/s 757 mmHg 96%
    21:00 +26°C° 0.1 mm 3 m/s 758 mmHg 97%
    22:00 +26°C° 0.6 mm 2 m/s 758 mmHg 97%
    23:00 +25°C° 0.6 mm 2 m/s 758 mmHg 98%
    Mostrar mais